Date String (YYYY-MM-DD hh:mm:ss) UTC,Instrument flags,absolute air pressure of the measurement (hPa),sample flow rate (lpm),inlet stack bypass flow (lpm),air temperature of the measurement (°C),ambient temperature measured by the external sensor (°C),aerosol sample conditioner tube jacket temperature (°C),OPC LED temperature (°C),internal box temperature (°C),relative humidity of the measurement (%),span deviation,mass concentration of particles derived from Lorenz-Mie calculation of OPC scattering (μg/m³),mass concentration of particles derived from Lorenz-Mie calculation of OPC scattering (μg/m³),mass concentration of particles derived from Lorenz-Mie calculation of OPC scattering (μg/m³)
DateTimeUTC,F1_M11,P_M11,Q1_M11,Q2_M11,T1_M11,T2_M11,T3_M11,T4_M11,T5_M11,U1_M11,ZSPAN_M11,X2_M11,X0_M11,X1_M11
2024-02-23 23:00:00,SystemResetWarning,0830.8,5.01,000.00,022.9,022.1,000.0,031.1,024.6,07.9,0000.0,0000.65,0002.96,0000.54
2024-02-23 23:01:00,SystemResetWarning,0830.8,5.00,000.00,022.9,022.1,000.0,031.1,024.6,07.7,0000.0,0000.63,0002.46,0000.54
2024-02-23 23:02:00,SystemResetWarning,0830.8,4.99,000.00,022.9,022.1,000.0,031.1,024.6,07.7,0000.0,0000.62,0002.32,0000.53
2024-02-23 23:03:00,SystemResetWarning,0830.8,4.99,000.00,022.9,022.1,000.0,031.1,024.6,07.8,0000.0,0000.60,0001.55,0000.53
2024-02-23 23:04:00,SystemResetWarning,0830.8,5.00,000.00,022.9,022.1,000.0,031.2,024.7,07.9,0000.0,0000.59,0000.98,0000.53
2024-02-23 23:05:00,SystemResetWarning,0830.9,5.00,000.00,022.9,022.1,000.0,031.2,024.7,07.8,0000.0,0000.59,0000.99,0000.53
2024-02-23 23:06:00,SystemResetWarning,0830.8,5.01,000.00,022.9,022.1,000.0,031.2,024.6,07.8,0000.0,0000.61,0001.06,0000.53
2024-02-23 23:07:00,SystemResetWarning,0830.8,5.01,000.00,022.9,022.1,000.0,031.2,024.6,07.8,0000.0,0000.62,0001.08,0000.53
2024-02-23 23:08:00,SystemResetWarning,0830.8,5.00,000.00,022.9,022.1,000.0,031.2,024.6,07.7,0000.0,0000.63,0001.12,0000.53
2024-02-23 23:09:00,SystemResetWarning,0830.8,4.99,000.00,022.9,022.1,000.0,031.2,024.6,07.9,0000.0,0000.62,0001.12,0000.52
2024-02-23 23:10:00,SystemResetWarning,0830.8,4.99,000.00,022.9,022.1,000.0,031.2,024.6,07.8,0000.0,0000.63,0001.16,0000.52
2024-02-23 23:11:00,SystemResetWarning,0830.8,5.01,000.00,022.9,022.1,000.0,031.2,024.6,07.7,0000.0,0000.65,0001.17,0000.51
2024-02-23 23:12:00,SystemResetWarning,0830.9,5.01,000.00,022.9,022.1,000.0,031.2,024.6,07.9,0000.0,0000.65,0001.23,0000.51
2024-02-23 23:13:00,SystemResetWarning,0830.8,5.00,000.00,022.9,022.1,000.0,031.2,024.6,08.1,0000.0,0000.76,0004.52,0000.51
2024-02-23 23:14:00,SystemResetWarning,0830.8,5.00,000.00,022.9,022.2,000.0,031.2,024.7,08.1,0000.0,0000.77,0004.53,0000.51
2024-02-23 23:15:00,SystemResetWarning,0830.8,5.00,000.00,022.9,022.1,000.0,031.2,024.7,07.9,0000.0,0000.79,0004.59,0000.52
2024-02-23 23:16:00,SystemResetWarning,0830.8,4.99,000.00,022.9,022.1,000.0,031.2,024.7,08.0,0000.0,0000.82,0004.65,0000.52
2024-02-23 23:17:00,SystemResetWarning,0830.7,4.99,000.00,022.9,022.1,000.0,031.2,024.8,08.0,0000.0,0000.82,0004.65,0000.53
2024-02-23 23:18:00,SystemResetWarning,0830.7,5.02,000.00,022.9,022.2,000.0,031.2,024.7,07.9,0000.0,0000.83,0004.69,0000.53
2024-02-23 23:19:00,SystemResetWarning,0830.7,5.00,000.00,022.9,022.2,000.0,031.2,024.7,07.7,0000.0,0000.82,0004.68,0000.52
2024-02-23 23:20:00,SystemResetWarning,0830.7,5.00,000.00,022.9,022.2,000.0,031.2,024.7,07.6,0000.0,0000.81,0004.64,0000.52
2024-02-23 23:21:00,SystemResetWarning,0830.7,5.00,000.00,022.9,022.2,000.0,031.2,024.7,07.6,0000.0,0000.80,0004.60,0000.52
2024-02-23 23:22:00,SystemResetWarning,0830.7,5.00,000.00,022.9,022.2,000.0,031.2,024.7,07.5,0000.0,0000.77,0004.54,0000.52
2024-02-23 23:23:00,SystemResetWarning,0830.7,5.00,000.00,022.9,022.2,000.0,031.2,024.7,07.6,0000.0,0000.78,0004.60,0000.52
2024-02-23 23:24:00,SystemResetWarning,0830.7,5.01,000.00,023.0,022.2,000.0,031.2,024.7,08.0,0000.0,0000.71,0003.38,0000.52
2024-02-23 23:25:00,SystemResetWarning,0830.7,5.00,000.00,023.0,022.2,000.0,031.2,024.7,08.0,0000.0,0000.70,0003.38,0000.52
2024-02-23 23:26:00,SystemResetWarning,0830.7,4.99,000.00,023.0,022.2,000.0,031.3,024.7,08.0,0000.0,0000.68,0003.33,0000.51
2024-02-23 23:27:00,SystemResetWarning,0830.7,4.99,000.00,023.0,022.2,000.0,031.3,024.8,08.1,0000.0,0000.65,0003.27,0000.50
2024-02-23 23:28:00,SystemResetWarning,0830.6,5.00,000.00,023.0,022.2,000.0,031.3,024.8,08.0,0000.0,0000.63,0003.22,0000.49
2024-02-23 23:29:00,SystemResetWarning,0830.6,5.02,000.00,023.0,022.2,000.0,031.3,024.8,08.1,0000.0,0000.60,0003.13,0000.49
2024-02-23 23:30:00,SystemResetWarning,0830.6,5.00,000.00,023.0,022.2,000.0,031.3,024.8,07.7,0000.0,0000.59,0003.10,0000.48
2024-02-23 23:31:00,SystemResetWarning,0830.6,4.99,000.00,023.0,022.2,000.0,031.3,024.8,07.9,0000.0,0000.59,0003.12,0000.48
2024-02-23 23:32:00,SystemResetWarning,0830.6,4.99,000.00,023.0,022.2,000.0,031.3,024.8,07.8,0000.0,0000.60,0003.12,0000.48
2024-02-23 23:33:00,SystemResetWarning,0830.6,5.00,000.00,023.0,022.2,000.0,031.3,024.8,07.9,0000.0,0000.59,0003.08,0000.48
2024-02-23 23:34:00,SystemResetWarning,0830.6,5.01,000.00,023.0,022.2,000.0,031.3,024.8,07.6,0000.0,0000.58,0002.87,0000.48
2024-02-23 23:35:00,SystemResetWarning,0830.6,5.01,000.00,023.0,022.2,000.0,031.3,024.8,07.8,0000.0,0000.54,0001.41,0000.48
2024-02-23 23:36:00,SystemResetWarning,0830.7,4.99,000.00,023.0,022.2,000.0,031.3,024.8,07.8,0000.0,0000.55,0001.55,0000.48
2024-02-23 23:37:00,SystemResetWarning,0830.7,4.99,000.00,023.0,022.3,000.0,031.3,024.8,07.9,0000.0,0000.56,0001.57,0000.48
2024-02-23 23:38:00,SystemResetWarning,0830.7,5.00,000.00,023.1,022.3,000.0,031.3,024.8,07.7,0000.0,0000.58,0001.60,0000.48
2024-02-23 23:39:00,SystemResetWarning,0830.7,5.00,000.00,023.1,022.3,000.0,031.3,024.9,07.7,0000.0,0000.60,0001.66,0000.49
2024-02-23 23:40:00,SystemResetWarning,0830.7,5.01,000.00,023.1,022.3,000.0,031.3,024.9,07.9,0000.0,0000.62,0001.70,0000.49
2024-02-23 23:41:00,SystemResetWarning,0830.7,5.01,000.00,023.1,022.3,000.0,031.3,024.8,07.9,0000.0,0000.62,0001.69,0000.49
2024-02-23 23:42:00,SystemResetWarning,0830.7,4.99,000.00,023.1,022.3,000.0,031.3,024.8,07.8,0000.0,0000.63,0001.71,0000.48
2024-02-23 23:43:00,SystemResetWarning,0830.7,4.99,000.00,023.1,022.3,000.0,031.3,024.8,07.8,0000.0,0000.63,0001.76,0000.47
2024-02-23 23:44:00,SystemResetWarning,0830.7,5.00,000.00,023.1,022.3,000.0,031.3,024.9,07.7,0000.0,0000.64,0001.79,0000.47
2024-02-23 23:45:00,SystemResetWarning,0830.8,4.99,000.00,023.1,022.3,000.0,031.4,024.9,07.8,0000.0,0000.64,0001.79,0000.47
2024-02-23 23:46:00,SystemResetWarning,0830.8,5.01,000.00,023.1,022.3,000.0,031.4,024.9,07.9,0000.0,0000.64,0001.31,0000.47
2024-02-23 23:47:00,SystemResetWarning,0830.9,5.00,000.00,023.1,022.3,000.0,031.4,024.8,07.7,0000.0,0000.61,0000.96,0000.46
2024-02-23 23:48:00,SystemResetWarning,0830.9,5.01,000.00,023.1,022.3,000.0,031.4,024.9,07.8,0000.0,0000.60,0000.93,0000.45
2024-02-23 23:49:00,SystemResetWarning,0830.9,5.01,000.00,023.1,022.3,000.0,031.4,024.9,07.7,0000.0,0000.58,0000.88,0000.45
2024-02-23 23:50:00,SystemResetWarning,0830.9,5.00,000.00,023.1,022.3,000.0,031.4,024.9,07.7,0000.0,0000.58,0000.88,0000.44
2024-02-23 23:51:00,SystemResetWarning,0830.9,4.99,000.00,023.1,022.3,000.0,031.4,024.9,07.8,0000.0,0000.55,0000.82,0000.44
2024-02-23 23:52:00,SystemResetWarning,0831.0,4.99,000.00,023.1,022.3,000.0,031.4,024.9,08.0,0000.0,0000.55,0000.83,0000.44
2024-02-23 23:53:00,SystemResetWarning,0830.9,5.00,000.00,023.1,022.3,000.0,031.4,024.9,08.2,0000.0,0000.57,0000.87,0000.45
2024-02-23 23:54:00,SystemResetWarning,0831.0,5.01,000.00,023.1,022.3,000.0,031.4,024.9,08.0,0000.0,0000.57,0000.87,0000.45
2024-02-23 23:55:00,SystemResetWarning,0830.9,5.01,000.00,023.1,022.3,000.0,031.4,024.9,08.3,0000.0,0000.58,0000.98,0000.45
2024-02-23 23:56:00,SystemResetWarning,0831.0,5.00,000.00,023.1,022.3,000.0,031.4,024.9,08.1,0000.0,0000.61,0001.12,0000.45
2024-02-23 23:57:00,SystemResetWarning,0830.9,4.99,000.00,023.1,022.3,000.0,031.4,024.9,08.0,0000.0,0000.58,0001.08,0000.44
2024-02-23 23:58:00,SystemResetWarning,0830.9,5.00,000.00,023.1,022.3,000.0,031.4,024.9,08.0,0000.0,0000.59,0001.10,0000.44
2024-02-23 23:59:00,SystemResetWarning,0830.9,5.00,000.00,023.1,022.3,000.0,031.4,024.9,08.0,0000.0,0000.59,0001.11,0000.44
